Regional Weather Roundup
Issued by NWS

Home | Current Version | Previous Version | Graphics & Text | Print | Product List | Glossary On
Versions: 1 2 3 4 5 6 7 8 9 10 11 12 13 14 15 16 17 18 19 20 21 22 23 24 25 26 27 28 29 30 31 32 33 34 35 36 37 38 39 40 41 42 43 44 45 46 47 48 49 50
000
ASUS43 KDMX 202206
RWRIA

WEATHER ROUNDUP FOR IOWA
NATIONAL WEATHER SERVICE DES MOINES IA
500 PM CDT WED SEP 20 2017

NOTE: "FAIR" INDICATES FEW OR NO CLOUDS BELOW 12,000 FEET WITH NO
SIGNIFICANT WEATHER AND/OR OBSTRUCTIONS TO VISIBILITY.

* - THESE STATIONS ARE NOT NWS STATIONS...THUS NOT UNDER NWS
QUALITY CONTROL.  THEY ALSO DO NOT REPORT WEATHER SUCH
AS PRECIPITATION OR FOG.

IAZ001>003-012>014-020>022-031>034-043>046-202300-
   NORTHWEST IOWA

CITY           SKY/WX    TMP DP  RH WIND       PRES   REMARKS
CARROLL *      SUNNY     79  52  38 N8G16     29.85R
CHEROKEE *     SUNNY     74  48  39 N6        29.86S
DENISON *      SUNNY     75  52  43 N7        29.87S
LE MARS *      SUNNY     75  48  38 VRB5      29.86S
ORANGE CITY *  SUNNY     73  46  38 N3        29.87S
SHELDON *      SUNNY     73  41  31 VRB5      29.86S
SIOUX CITY     SUNNY     76  46  34 CALM      29.86S
SPENCER        SUNNY     76  45  33 NW9       29.87S
STORM LAKE *   SUNNY     75  43  31 NW5       29.87S
$$

IAZ055>058-069>071-079>083-090>094-202300-
   SOUTHWEST IOWA

CITY           SKY/WX    TMP DP  RH WIND       PRES   REMARKS
ATLANTIC *     SUNNY     79  61  53 N10       29.83S HX  80
AUDUBON *      SUNNY     79  59  50 N10       29.86S HX  80
CLARINDA *     CLOUDY    84  68  58 VRB6      29.83R HX  87
COUNCIL BLFS * SUNNY     77  55  47 N12       29.85R
HARLAN  *      SUNNY     79  55  44 N10       29.88S
LAMONI         PTSUNNY   84  70  62 S12       29.81S HX  88
RED OAK *      SUNNY     81  63  54 N8        29.82S HX  82
SHENANDOAH *   SUNNY     84  63  48 N9        29.82R HX  85
$$

IAZ047>049-059>061-072>074-084-202300-
   CENTRAL IOWA

CITY           SKY/WX    TMP DP  RH WIND       PRES   REMARKS
AMES           MOSUNNY   83  64  52 N12       29.81R HX  84
ANKENY *       CLOUDY    82  66  57 NW7       29.81R HX  85
BOONE *        PTSUNNY   82  61  47 NW12      29.82R HX  83
CHARITON *     PTSUNNY   84  72  65 S10       29.80F HX  89
DES MOINES     PTSUNNY   85  67  54 N10       29.79R HX  87
GRINNELL*      PTSUNNY   85  70  60 S8        29.82R HX  89
KNOXVILLE *    MOSUNNY   84  70  61 SW10G16   29.79S HX  88
MARSHALLTOWN   LGT RAIN  79  74  84 CALM      29.80R HX  82
NEWTON *       PTSUNNY   84  70  61 S10       29.80R HX  88
PELLA *        MOSUNNY   87  69  54 S12G17    29.81S HX  91
PERRY *          N/A     83  54  36 NW6       29.83R HX  82
$$

IAZ004>006-015-016-023>025-035-036-202300-
   NORTH CENTRAL IOWA

CITY           SKY/WX    TMP DP  RH WIND       PRES   REMARKS
ALGONA *       SUNNY     77  52  41 VRB6      29.86S
CLARION *      SUNNY     79  57  47 NW9       29.85R HX  80
ESTHERVILLE    SUNNY     73  46  38 N6        29.86S
FORT DODGE *   SUNNY     78  55  44 N7        29.85S
MASON CITY     SUNNY     77  54  44 N9        29.86R
FOREST CITY *    N/A     73  54  49 N9        29.86S
IOWA FALLS *     N/A     83  61  47 NW8       29.84R HX  83
$$

IAZ007>011-017>019-026>030-037>042-050>054-066-202300-
   NORTHEAST IOWA

CITY           SKY/WX    TMP DP  RH WIND       PRES   REMARKS
CEDAR RAPIDS   CLOUDY    87  70  56 SW13      29.79S HX  92
CHARLES CITY * SUNNY     81  63  54 NW12G17   29.82R HX  82
CLINTON *      SUNNY    N/A N/A N/A SW15G23   29.80R
DECORAH *      CLOUDY    75  73  94 VRB3      29.80R
DUBUQUE        MOSUNNY   85  70  60 S10       29.80S HX  89
MONTICELLO *   MOSUNNY   90  72  55 SW8       29.78S HX  96
OELWEIN *      PTSUNNY   84  72  65 SW9       29.81R HX  89
WATERLOO       CLOUDY    75  72  90 W8        29.79R
$$

IAZ064-065-067-068-078-202300-
   EAST CENTRAL IOWA

CITY           SKY/WX    TMP DP  RH WIND       PRES   REMARKS
DAVENPORT      MOSUNNY   92  69  47 S16G24    29.81R HX  97
IOWA CITY      MOSUNNY   92  71  50 W12       29.79R HX  98
MUSCATINE *    PTSUNNY   95  70  43 S12G17    29.78S HX 101
QUAD CITIES    SUNNY     93  68  43 S12G20    29.78R HX  97
$$

IAZ062-063-075>077-085>089-095>099-202300-
   SOUTHEAST IOWA

CITY           SKY/WX    TMP DP  RH WIND       PRES   REMARKS
BURLINGTON     SUNNY     92  72  51 S15       29.79R HX  99
FAIRFIELD *    MOSUNNY   91  70  49 SW12G17   29.79S HX  97
FORT MADISON * SUNNY     93  72  49 S13       29.81R HX 100
KEOKUK *       SUNNY     93  70  46 S14G23    29.79S HX  99
OSKALOOSA *    CLOUDY    85  70  59 SW7       29.81S HX  90
OTTUMWA        CLOUDY    87  70  56 SW9       29.80S HX  92
WASHINGTON *   MOSUNNY   91  72  52 W9G15     29.80S HX  98
$$

ABBREVIATIONS USED IN REMARKS
   TC - TEMPERATURES IN CELSIUS
  WCI - WIND CHILL INDEX
   HX - HEAT INDEX
  VSB - VISIBILITY
$$




USA.gov is the U.S. government's official web portal to all federal, state and local government web resources and services.